When you browse on this site, cookies collect data to enhance your experience and personalize the content and advertising you see.
Visit our Privacy Policy to learn more. By continuing to use the site, you agree to this use of cookies and data.
EN

Hourly Weather Puerto Ayacucho

Today, 10 July, Friday

Time Temperature Precipitation Wind Pressure Humidity
00:00 +26°C° 0 mm 1 mps 752 mmHg 91%
01:00 +25°C° 0 mm 1 mps 751 mmHg 92%
02:00 +25°C° 0.3 mm 1 mps 751 mmHg 92%
03:00 +25°C° 0.3 mm 1 mps 751 mmHg 93%
04:00 +25°C° 0.3 mm 1 mps 751 mmHg 93%
05:00 +25°C° 0.1 mm 1 mps 751 mmHg 91%
06:00 +26°C° 0.1 mm 1 mps 752 mmHg 89%
07:00 +26°C° 0.1 mm 1 mps 752 mmHg 88%
08:00 +28°C° 0 mm 1 mps 752 mmHg 81%
09:00 +30°C° 0 mm 1 mps 752 mmHg 74%
10:00 +32°C° 0 mm 1 mps 753 mmHg 68%
11:00 +32°C° 1.2 mm 1 mps 752 mmHg 69%
12:00 +32°C° 1.2 mm 1 mps 751 mmHg 70%
13:00 +32°C° 1.2 mm 1 mps 750 mmHg 71%
14:00 +32°C° 0.8 mm 1 mps 750 mmHg 72%
15:00 +32°C° 0.8 mm 1 mps 750 mmHg 73%
16:00 +32°C° 0.8 mm 1 mps 749 mmHg 75%
17:00 +30°C° 1.1 mm 1 mps 750 mmHg 79%
18:00 +29°C° 1.1 mm 1 mps 750 mmHg 83%
19:00 +27°C° 1.1 mm 1 mps 751 mmHg 88%
20:00 +27°C° 1.5 mm 1 mps 751 mmHg 89%
21:00 +27°C° 1.5 mm 1 mps 752 mmHg 89%
22:00 +26°C° 1.5 mm 1 mps 752 mmHg 90%
23:00 +26°C° 0.1 mm 1 mps 752 mmHg 91%

Tomorrow, 11 July, Saturday

Time Temperature Precipitation Wind Pressure Humidity
00:00 +26°C° 0.1 mm 1 mps 751 mmHg 92%
01:00 +26°C° 0.1 mm 1 mps 751 mmHg 93%
02:00 +26°C° 0.4 mm 1 mps 751 mmHg 93%
03:00 +26°C° 0.4 mm 1 mps 751 mmHg 93%
04:00 +25°C° 0.4 mm 1 mps 751 mmHg 94%
05:00 +25°C° 0.6 mm 1 mps 751 mmHg 94%
06:00 +26°C° 0.6 mm 2 mps 752 mmHg 94%
07:00 +26°C° 0.6 mm 2 mps 752 mmHg 94%
08:00 +26°C° 0.3 mm 2 mps 752 mmHg 93%
09:00 +26°C° 0.3 mm 2 mps 753 mmHg 93%
10:00 +26°C° 0.3 mm 2 mps 753 mmHg 93%
11:00 +26°C° 0.6 mm 2 mps 752 mmHg 92%
12:00 +27°C° 0.6 mm 2 mps 752 mmHg 92%
13:00 +27°C° 0.6 mm 2 mps 751 mmHg 91%
14:00 +27°C° 0 mm 2 mps 750 mmHg 87%
15:00 +28°C° 0 mm 1 mps 750 mmHg 84%
16:00 +29°C° 0 mm 1 mps 749 mmHg 80%
17:00 +28°C° 0 mm 1 mps 750 mmHg 82%
18:00 +27°C° 0 mm 1 mps 750 mmHg 85%
19:00 +27°C° 0 mm 1 mps 750 mmHg 87%
20:00 +27°C° 0 mm 1 mps 751 mmHg 87%
21:00 +24°C° 0 mm 0 mps 752 mmHg 88%
22:00 +24°C° 0 mm 0 mps 752 mmHg 88%
23:00 +24°C° 0.1 mm 0 mps 752 mmHg 89%

Day after tomorrow, 12 July, Sunday

Time Temperature Precipitation Wind Pressure Humidity
00:00 +24°C° 0.1 mm 0 mps 751 mmHg 89%
01:00 +24°C° 0.1 mm 0 mps 751 mmHg 90%
02:00 +24°C° 0.7 mm 0 mps 751 mmHg 91%
03:00 +23°C° 0.7 mm 0 mps 751 mmHg 92%
04:00 +25°C° 0.7 mm 1 mps 751 mmHg 93%
05:00 +25°C° 1.1 mm 1 mps 752 mmHg 93%
06:00 +25°C° 1.1 mm 1 mps 752 mmHg 94%
07:00 +25°C° 1.1 mm 1 mps 753 mmHg 94%
08:00 +26°C° 0.1 mm 1 mps 753 mmHg 90%
09:00 +25°C° 0.1 mm 0 mps 753 mmHg 86%
10:00 +26°C° 0.1 mm 0 mps 753 mmHg 82%
11:00 +29°C° 0 mm 1 mps 752 mmHg 78%
12:00 +30°C° 0 mm 1 mps 751 mmHg 74%
13:00 +31°C° 0 mm 1 mps 750 mmHg 70%
14:00 +31°C° 0.6 mm 2 mps 750 mmHg 73%
15:00 +31°C° 0.6 mm 2 mps 750 mmHg 75%
16:00 +30°C° 0.6 mm 2 mps 749 mmHg 78%
17:00 +29°C° 1.9 mm 2 mps 750 mmHg 82%
18:00 +28°C° 1.9 mm 2 mps 750 mmHg 85%
19:00 +27°C° 1.9 mm 2 mps 751 mmHg 88%
20:00 +27°C° 2.5 mm 2 mps 751 mmHg 89%
21:00 +26°C° 2.5 mm 2 mps 752 mmHg 91%
22:00 +26°C° 2.5 mm 2 mps 752 mmHg 92%
23:00 +26°C° 1.7 mm 1 mps 752 mmHg 92%

13 July, Monday

Time Temperature Precipitation Wind Pressure Humidity
00:00 +26°C° 1.7 mm 1 mps 751 mmHg 93%
01:00 +25°C° 1.7 mm 1 mps 751 mmHg 94%
02:00 +25°C° 1.4 mm 1 mps 751 mmHg 95%
03:00 +25°C° 1.4 mm 1 mps 751 mmHg 95%
04:00 +25°C° 1.4 mm 1 mps 751 mmHg 96%
05:00 +25°C° 0.9 mm 1 mps 752 mmHg 96%
06:00 +25°C° 0.9 mm 1 mps 752 mmHg 96%
07:00 +25°C° 0.9 mm 1 mps 753 mmHg 96%
08:00 +26°C° 0.5 mm 1 mps 753 mmHg 94%
09:00 +26°C° 0.5 mm 2 mps 753 mmHg 93%
10:00 +27°C° 0.5 mm 2 mps 753 mmHg 92%
11:00 +27°C° 0.1 mm 3 mps 753 mmHg 89%
12:00 +28°C° 0.1 mm 3 mps 752 mmHg 85%
13:00 +29°C° 0.1 mm 3 mps 751 mmHg 82%
14:00 +29°C° 0.5 mm 3 mps 751 mmHg 82%
15:00 +29°C° 0.5 mm 3 mps 751 mmHg 83%
16:00 +29°C° 0.5 mm 3 mps 750 mmHg 84%
17:00 +28°C° 1 mm 2 mps 751 mmHg 87%
18:00 +27°C° 1 mm 2 mps 751 mmHg 90%
19:00 +26°C° 1 mm 2 mps 752 mmHg 93%
20:00 +26°C° 2.4 mm 2 mps 752 mmHg 94%
21:00 +26°C° 2.4 mm 2 mps 753 mmHg 95%
22:00 +25°C° 2.4 mm 2 mps 753 mmHg 95%
23:00 +25°C° 1 mm 2 mps 753 mmHg 96%

14 July, Tuesday

Time Temperature Precipitation Wind Pressure Humidity
00:00 +25°C° 1 mm 2 mps 752 mmHg 96%
01:00 +25°C° 1 mm 2 mps 752 mmHg 97%
02:00 +25°C° 0.1 mm 2 mps 752 mmHg 97%
03:00 +24°C° 0.1 mm 2 mps 752 mmHg 97%
04:00 +24°C° 0.1 mm 1 mps 752 mmHg 98%
05:00 +25°C° 0.3 mm 1 mps 752 mmHg 97%
06:00 +25°C° 0.3 mm 1 mps 753 mmHg 96%
07:00 +25°C° 0.3 mm 1 mps 753 mmHg 95%
08:00 +25°C° 1.4 mm 2 mps 753 mmHg 95%
09:00 +25°C° 1.4 mm 2 mps 754 mmHg 95%
10:00 +25°C° 1.4 mm 2 mps 754 mmHg 95%
11:00 +25°C° 0.4 mm 2 mps 753 mmHg 95%
12:00 +25°C° 0.4 mm 2 mps 753 mmHg 94%
13:00 +25°C° 0.4 mm 2 mps 752 mmHg 94%
14:00 +25°C° 0.3 mm 2 mps 752 mmHg 94%
15:00 +25°C° 0.3 mm 2 mps 752 mmHg 93%
16:00 +25°C° 0.3 mm 2 mps 751 mmHg 93%
17:00 +25°C° 0 mm 2 mps 752 mmHg 93%
18:00 +25°C° 0 mm 1 mps 752 mmHg 94%
19:00 +25°C° 0 mm 1 mps 752 mmHg 94%
20:00 +25°C° 0 mm 1 mps 753 mmHg 94%
21:00 +23°C° 0 mm 0 mps 753 mmHg 94%
22:00 +23°C° 0 mm 0 mps 753 mmHg 93%
23:00 +23°C° 0 mm 0 mps 753 mmHg 94%

15 July, Wednesday

Time Temperature Precipitation Wind Pressure Humidity
00:00 +22°C° 0 mm 0 mps 752 mmHg 94%
01:00 +22°C° 0 mm 0 mps 752 mmHg 94%
02:00 +22°C° 0 mm 0 mps 752 mmHg 94%
03:00 +22°C° 0 mm 0 mps 752 mmHg 94%
04:00 +22°C° 0 mm 0 mps 752 mmHg 93%
05:00 +25°C° 0 mm 1 mps 752 mmHg 92%
06:00 +25°C° 0 mm 1 mps 753 mmHg 90%
07:00 +25°C° 0 mm 1 mps 753 mmHg 89%
08:00 +27°C° 0 mm 1 mps 754 mmHg 84%
09:00 +28°C° 0 mm 1 mps 754 mmHg 79%
10:00 +29°C° 0 mm 1 mps 754 mmHg 75%
11:00 +29°C° 0.1 mm 1 mps 753 mmHg 73%
12:00 +29°C° 0.1 mm 1 mps 752 mmHg 72%
13:00 +30°C° 0.1 mm 2 mps 752 mmHg 71%
14:00 +30°C° 0.1 mm 1 mps 751 mmHg 72%
15:00 +29°C° 0.1 mm 1 mps 751 mmHg 73%
16:00 +29°C° 0.1 mm 1 mps 750 mmHg 74%
17:00 +28°C° 0 mm 1 mps 750 mmHg 77%
18:00 +27°C° 0 mm 1 mps 751 mmHg 81%
19:00 +26°C° 0 mm 1 mps 751 mmHg 85%
20:00 +26°C° 0 mm 1 mps 752 mmHg 85%
21:00 +26°C° 0 mm 1 mps 752 mmHg 85%
22:00 +26°C° 0 mm 1 mps 752 mmHg 86%
23:00 +25°C° 0 mm 1 mps 752 mmHg 87%
Show more